Regional Weather Roundup
Issued by NWS

Home | Current Version | Previous Version | Graphics & Text | Print | Product List | Glossary On
Versions: 1 2 3 4 5 6 7 8 9 10 11 12 13 14 15 16 17 18 19 20 21 22 23 24 25 26 27 28 29 30 31 32 33 34 35 36 37 38 39 40 41 42 43 44 45 46 47 48 49 50
000
ASUS43 KBIS 250120
RWRND

NORTH DAKOTA REGIONAL WEATHER ROUNDUP
NATIONAL WEATHER SERVICE BISMARCK ND
700 PM CST WED DEC 24 2014

NOTE: "FAIR" INDICATES FEW OR NO CLOUDS BELOW 12,000 FEET WITH NO
SIGNIFICANT WEATHER AND/OR OBSTRUCTIONS TO VISIBILITY.


NDZ001>003-009>011-017-250200-
NORTHWEST NORTH DAKOTA

CITY           SKY/WX    TMP DP  RH WIND       PRES   REMARKS
WILLISTON      PTCLDY    27  22  81 CALM      29.49R
MINOT          PTCLDY    30  25  81 W13       29.42F WCI  20
MINOT AFB      CLEAR     27  27  99 W12       29.42S WCI  17
$$

NDZ018>021-031>035-040>046-250200-
SOUTHWEST NORTH DAKOTA

CITY           SKY/WX    TMP DP  RH WIND       PRES   REMARKS
BISMARCK       CLOUDY    30  28  92 CALM      29.46F
DICKINSON      CLOUDY    35  31  85 NW6       29.44S
GARRISON         N/A     31  28  89 NW13      29.43F
HETTINGER ARPT CLOUDY    34  28  79 NW6       29.46F
$$

NDZ004>008-012>016-024-026-027-054-250200-
NORTHEAST NORTH DAKOTA

CITY           SKY/WX    TMP DP  RH WIND       PRES   REMARKS
GRAND FORKS    FLURRIES  28  26  92 S16       29.46F WCI  16
GRND FRKS AFB  CLOUDY    28  28 100 SW13      29.45F WCI  18
DEVILS LAKE    PTCLDY    27  21  80 SW9       29.40S WCI  17
$$

NDZ022-023-025-028>030-036>039-047>053-250200-
SOUTHEAST NORTH DAKOTA

CITY           SKY/WX    TMP DP  RH WIND       PRES   REMARKS
FARGO          CLOUDY    29  25  85 S14       29.52F WCI  18
JAMESTOWN      CLOUDY    30  24  78 SW7       29.44F
$$




USA.gov is the U.S. government's official web portal to all federal, state and local government web resources and services.